SCP
-0 -1 -0 -0 -0 -0 -0 -0 -0 -0 -0 -0 -0 -0 -0 -0 -0 -0 -0 -0 -0 -0 -0 0 0 -0 -0 -0 -0 -0 -0 -0 0 0 0 0 0 0 0 0 -0 0 0
-0 -0 -0 -0 -0 -1 -0 -0 -0 -0 -0 -0 -0 -0 -0 -0 -0 -0 -0 -0 -0 -0 -0 -0 0 0 0 0 -0 0 0 0 0 0 0 0 0 0 0 0 0 0 0
-0 -0 -0 -0 -1 -1 -0 -0 -0 -0 -0 -0 -0 -0 -0 -0 -0 -0 -0 -0 -0 -0 -0 0 0 0 0 0 0 0 0 0 -0 0 0 0 0 0 0 0 0 0 0
-0 -0 -0 -1 -1 -0 -0 -0 -0 -0 -0 -0 -0 -0 -0 -0 -0 -0 -0 -0 -0 -0 0 0 0 0 0 0 0 0 0 -0 -0 0 0 -0 0 0 0 0 0 0 0
0 -0 -1 -1 -1 -0 -0 -0 -0 -0 -0 -0 -0 -0 -0 -0 -0 -0 -0 -0 -0 -0 0 0 0 0 0 0 0 0 0 -0 -0 -0 0 0 0 0 -0 0 0 0 0
0 -0 -1 -1 -0 -0 -0 -0 -0 -0 -0 -0 -0 -0 -0 -0 -0 -0 -0 -0 0 0 0 0 0 0 0 0 0 0 -0 -0 -0 0 0 0 0 0 0 0 0 0 0
0 0 0 -0 -0 -0 -1 -1 -0 -0 -0 -0 -0 -0 -0 -0 -0 -0 -0 -0 0 0 0 0 0 0 0 0 0 0 -0 -0 -0 0 0 0 0 0 0 0 0 0 0
0 1 0 0 -0 -0 -0 -1 -0 -0 -0 -0 -0 -0 -0 -0 -0 -0 -0 0 0 0 0 0 0 0 0 0 0 0 -0 -0 -0 0 -0 0 0 0 0 0 0 0 0
0 0 0 0 0 -0 -0 -0 -0 -0 -0 -0 -0 -0 -0 -0 0 0 0 0 0 0 0 0 0 0 0 0 0 0 -0 -0 -0 0 0 0 1 1 1 1 1 0 1
1 1 0 0 0 0 0 -0 -0 -0 -0 -0 -0 -0 0 0 0 0 0 0 0 0 0 0 0 0 0 0 0 0 0 -0 -0 0 0 1 1 1 1 1 1 1 1
1 2 0 0 0 0 0 0 0 -0 -0 -0 -0 -0 0 0 0 0 0 0 0 0 0 0 0 0 0 0 0 0 0 0 0 0 0 1 1 0 0 1 1 1 1
2 2 0 1 0 0 0 0 0 0 0 0 0 0 0 0 0 0 0 0 0 0 0 0 0 0 0 0 0 -0 0 0 0 0 0 0 0 0 0 0 0 1 1
2 3 1 1 0 0 0 0 0 0 0 0 0 0 0 0 0 0 0 0 0 0 0 0 0 -0 0 0 0 0 0 0 0 0 0 0 0 0 0 0 0 0 0
2 3 2 1 1 1 1 0 0 0 0 0 0 0 0 0 0 0 0 0 0 0 -0 0 0 0 0 -0 0 0 0 0 0 0 0 0 0 0 0 0 0 0 0
3 6 4 2 1 1 1 0 0 0 0 0 0 0 0 0 0 -0 0 0 0 0 0 0 0 0 0 0 0 0 0 0 0 0 0 0 0 0 0 0 0 0 0
3 9 6 3 2 1 1 0 0 0 0 0 0 0 -0 0 1 0 1 0 0 0 0 0 1 0 0 1 0 1 0 0 0 0 0 0 0 0 0 0 0 0 0
4 12 8 5 3 2 3 1 1 1 0 0 0 0 0 0 1 0 1 0 0 1 1 1 1 1 1 1 1 1 0 0 0 0 0 0 0 0 0 0 0 0 0
2 13 12 9 7 6 8 2 2 1 1 0 1 0 0 0 1 1 1 0 -0 2 1 1 0 0 0 0 0 1 0 0 0 0 0 0 0 0 0 0 0 0 0
2 9 14 10 8 8 9 3 3 4 2 1 1 1 1 0 1 1 0 0 1 2 1 1 0 0 1 0 1 1 1 0 0 0 0 0 0 0 0 0 0 0 0
0 8 12 11 11 8 8 5 4 4 1 1 1 1 1 1 1 0 1 3 3 2 1 1 1 1 1 1 0 0 0 0 0 0 0 0 0 0 0 0 0 0 0
0 17 13 10 9 11 8 6 3 3 2 3 2 2 1 1 1 1 3 3 2 1 1 1 1 1 1 0 0 0 0 0 0 0 0 0 0 0 0 0 0 0 0
0 15 19 16 13 10 9 8 4 4 2 4 4 2 1 1 1 1 3 2 2 2 2 2 2 1 1 0 0 0 0 0 0 0 0 0 0 0 0 0 0 0 0
0 14 23 17 12 8 7 9 7 7 3 5 4 2 1 1 1 3 3 3 3 2 2 1 1 1 1 0 0 0 0 0 0 0 0 0 0 0 0 0 0 0 0
0 5 18 14 12 7 7 7 5 6 3 3 3 3 2 1 1 3 3 3 2 1 1 1 1 0 0 0 0 0 0 0 0 0 0 0 0 0 0 0 0 0 0
0 7 15 15 9 8 6 5 5 5 4 5 4 3 2 1 3 2 2 2 1 1 1 0 0 0 0 0 0 0 0 0 0 0 0 0 0 0 0 0 0 0 0
0 11 15 10 9 8 5 4 5 5 4 4 4 3 2 3 3 2 1 1 0 0 0 0 0 0 0 0 0 0 0 0 0 0 0 0 0 0 0 0 0 0 0
Wind_Speed_500mb
28 46 49 43 39 37 35 32 32 30 27 26 25 25 28 32 34 34 31 29 29 31 31 28 23 19 19 19 14 10 10 13 15 15 17 18 18 19 17 17 12 16 11
36 52 50 42 40 38 35 33 32 31 28 25 24 23 28 32 34 32 29 28 28 27 25 22 19 16 14 12 10 10 13 17 20 22 23 21 18 14 11 9 13 11 7
39 54 51 44 41 40 36 34 34 31 29 26 23 22 25 30 32 29 28 27 24 22 20 17 13 8 9 9 9 11 15 20 27 28 21 18 25 9 8 7 6 5 4
37 54 52 48 43 41 38 35 35 31 28 26 22 19 23 28 30 30 28 23 20 20 19 16 12 7 5 6 8 12 17 25 29 28 23 9 12 16 11 7 7 6 7
35 54 50 50 46 42 38 37 34 31 29 25 21 20 23 27 29 30 27 22 20 20 17 13 9 5 5 6 7 11 17 24 25 26 22 10 14 16 21 15 12 12 14
34 54 50 50 48 43 39 37 34 32 29 26 21 22 24 27 30 30 26 20 18 16 13 11 8 6 5 5 7 11 17 24 24 21 14 11 16 18 24 19 17 19 19
38 47 54 50 50 46 40 37 34 31 29 25 23 24 26 29 31 28 24 20 16 15 13 9 6 5 5 5 6 9 17 21 13 12 2 13 11 21 25 24 22 22 23
41 48 54 54 50 47 43 37 33 31 29 26 25 25 26 30 31 28 24 19 16 15 11 7 5 5 4 3 3 5 11 15 15 11 3 21 21 24 30 29 28 28 29
41 50 48 59 54 48 45 39 34 30 30 28 26 26 28 31 32 29 23 19 16 12 9 7 6 4 3 2 1 2 4 9 10 4 7 19 18 23 33 37 31 30 32
44 44 44 64 61 55 51 44 37 31 30 30 30 30 31 33 33 29 23 20 15 11 9 6 5 4 3 3 4 5 3 2 9 2 15 26 28 30 38 29 28 30 29
50 50 38 63 64 59 55 51 43 39 36 35 33 34 34 36 34 28 24 19 15 13 9 6 5 4 4 12 18 15 10 8 6 18 17 22 28 36 35 32 33 35 34
58 55 42 52 61 58 50 55 51 45 43 40 39 39 39 36 33 27 25 21 18 13 11 8 6 8 13 5 10 16 13 12 10 16 24 31 32 39 39 36 35 34 33
61 59 52 58 51 53 47 55 55 50 47 44 42 42 40 28 28 28 23 24 20 15 11 6 8 10 10 13 7 12 14 15 15 11 19 29 36 42 44 41 35 32 29
64 65 59 62 54 56 59 46 51 50 48 47 44 44 42 36 31 28 13 22 17 12 7 8 7 6 7 7 5 4 6 9 13 21 27 32 39 42 48 42 31 25 21
65 69 68 67 61 64 61 46 44 39 44 42 43 46 45 35 33 36 24 8 7 8 6 6 16 14 6 6 8 14 14 13 15 21 24 30 38 43 44 32 23 20 23
56 71 71 71 65 68 56 49 47 41 35 40 34 44 43 36 43 34 30 21 14 22 17 12 19 8 12 13 14 17 14 18 23 31 32 31 32 39 37 30 27 23 25
45 78 79 70 68 76 49 47 53 49 43 46 38 30 46 42 39 33 30 32 22 22 28 16 22 16 4 10 14 14 14 22 16 22 34 15 24 34 31 36 27 29 33
33 77 87 81 75 83 62 50 57 51 47 45 47 40 43 42 37 39 33 33 27 31 23 21 13 12 11 7 12 15 17 13 15 29 16 15 18 21 25 30 37 39 36
51 61 82 89 85 80 77 54 59 49 51 44 48 46 41 49 38 47 32 33 29 20 17 17 9 9 7 10 11 16 19 21 19 10 24 24 17 13 21 28 38 43 35
73 61 75 87 88 83 83 65 64 44 56 48 49 49 36 54 43 49 32 35 32 32 24 21 16 12 10 16 18 13 23 20 19 14 18 14 16 27 27 28 39 25 30
67 87 78 86 83 89 89 82 76 56 62 49 51 50 42 54 45 51 36 38 32 34 20 11 8 3 3 16 8 16 28 24 20 14 24 13 15 26 31 31 25 28 49
84 84 92 91 99 90 93 91 80 61 64 51 55 53 45 47 48 51 40 36 32 27 22 18 13 8 11 18 22 11 12 14 14 32 20 16 23 31 35 19 37 44 42
83 86 100 94 94 82 89 96 74 60 61 55 58 55 49 51 46 48 42 34 37 33 26 17 19 14 8 15 17 16 14 11 37 14 19 23 21 34 32 30 29 39 48
97 75 93 97 96 81 95 97 87 80 79 66 65 61 52 50 57 47 41 41 45 35 28 25 14 10 7 5 9 18 20 28 26 20 23 26 20 29 32 29 37 45 36
90 81 95 102 95 87 104 95 88 81 77 69 68 54 55 47 63 53 47 46 46 40 32 24 11 14 9 22 11 12 13 13 15 21 28 36 37 35 38 44 42 31 43
68 86 100 102 96 89 109 91 87 84 81 76 70 70 63 61 61 56 57 52 44 37 25 12 9 38 4 17 14 9 11 15 21 23 31 36 39 43 42 38 53 55 49
Wind_Direction_500mb
168 162 158 154 150 151 155 158 163 161 153 142 132 128 129 130 132 132 135 134 134 133 132 128 120 106 106 121 122 112 108 113 115 113 102 93 94 100 107 103 89 86 76
149 162 160 157 154 154 157 158 164 164 157 147 138 135 133 132 133 133 134 134 132 133 134 130 121 105 99 103 104 102 102 105 101 91 87 82 71 91 103 85 86 105 91
159 162 162 161 157 157 159 160 165 167 160 154 146 138 135 136 136 135 133 130 131 136 138 139 139 125 99 85 91 97 102 103 97 90 77 71 12 33 55 59 72 80 60
161 162 166 162 161 163 162 160 167 167 163 160 152 143 140 142 140 138 135 131 133 142 145 146 148 140 110 92 98 106 111 114 107 90 73 103 336 334 353 353 346 341 330
170 168 170 165 165 166 165 163 164 167 167 164 159 153 149 149 146 145 144 141 140 146 150 150 152 155 126 113 110 115 120 122 108 98 84 161 278 304 324 327 330 320 314
174 175 171 171 169 168 168 168 169 170 169 167 164 164 158 157 155 153 155 155 153 159 162 158 151 143 127 121 127 126 130 129 126 105 81 276 279 292 319 317 317 315 315
167 180 175 177 172 171 171 172 173 171 171 169 172 171 164 164 162 162 165 166 163 164 164 163 155 148 144 145 147 150 153 148 130 80 344 267 277 290 312 317 319 310 304
169 191 182 179 177 176 173 176 174 173 173 173 178 176 170 169 169 171 172 171 169 169 171 173 169 173 167 149 142 159 173 176 156 98 227 261 281 280 299 309 307 304 300
172 196 190 181 180 180 179 179 177 174 174 176 182 181 177 174 176 178 176 173 172 174 180 178 176 178 154 131 134 202 186 190 214 118 319 267 271 286 302 302 300 303 301
178 193 195 186 181 182 183 183 180 176 179 179 185 184 181 179 182 184 182 183 186 189 192 192 173 166 149 95 40 13 342 139 91 335 287 269 277 295 303 304 310 310 309
182 193 195 187 184 185 187 183 184 182 181 184 187 186 182 185 186 187 192 192 197 200 197 179 171 147 120 87 52 32 45 93 350 300 255 290 296 302 305 306 308 308 306
183 190 190 191 187 183 190 188 186 186 184 187 188 185 182 189 191 190 201 195 199 201 195 176 164 114 76 127 47 34 35 15 9 273 289 290 303 309 309 308 308 307 306
189 187 186 195 189 174 187 188 188 189 188 188 191 187 180 189 182 198 204 207 200 202 194 156 114 116 87 7 280 9 9 345 309 292 299 305 305 311 315 312 313 316 314
192 188 189 195 189 176 199 196 190 190 190 191 193 185 171 191 187 194 222 210 204 190 183 43 59 102 67 217 149 206 229 249 354 296 304 305 309 319 320 317 316 321 328
195 185 187 194 190 175 203 198 189 193 194 193 197 186 174 191 199 174 215 186 133 113 167 250 228 237 198 206 239 250 248 272 299 304 299 313 313 320 325 324 325 326 332
202 184 183 193 188 177 205 193 181 188 195 184 205 190 173 183 208 183 201 196 205 208 208 190 218 223 204 257 274 281 290 281 284 283 297 297 314 318 324 334 325 321 321
214 186 187 190 190 178 192 189 179 185 191 186 203 199 174 190 209 183 194 181 189 194 188 194 172 206 224 255 285 296 301 299 319 291 298 310 312 308 321 331 331 324 319
230 186 191 190 191 182 183 189 180 187 193 184 196 204 187 188 202 185 196 176 179 205 205 202 235 212 247 301 297 297 292 292 289 297 338 283 311 307 316 320 317 314 322
237 202 188 190 196 187 189 191 185 191 188 187 194 206 204 191 202 184 193 174 188 186 194 206 203 256 266 287 288 307 285 293 284 271 269 284 273 264 290 303 302 318 330
219 215 207 201 196 197 193 196 189 193 188 190 192 206 208 191 203 174 181 197 197 196 185 196 178 214 249 260 269 257 270 298 284 273 300 312 290 316 326 291 316 333 316
234 212 204 201 199 198 194 190 192 195 191 188 192 204 204 191 197 166 182 195 200 207 186 191 153 4 115 322 329 332 260 292 284 276 277 301 261 284 327 307 317 294 310
233 212 202 205 204 203 200 195 191 191 191 185 189 200 208 201 190 166 191 194 188 181 167 164 152 124 57 354 338 358 355 278 325 311 279 285 296 294 325 295 286 300 303
223 205 198 205 207 205 202 191 187 189 184 183 191 197 199 197 177 174 184 185 179 172 171 134 103 88 55 354 357 37 335 320 333 7 298 315 305 300 318 335 316 313 316
215 208 205 206 203 207 194 187 186 185 181 181 185 188 187 194 171 186 181 181 178 174 151 149 132 89 119 50 0 19 335 340 314 327 327 329 331 326 343 343 325 331 331
205 205 206 202 201 203 191 189 188 182 178 176 180 181 183 180 175 186 183 185 177 168 162 168 58 30 348 323 307 307 293 292 350 327 334 319 307 315 320 328 318 314 320
211 193 200 201 199 201 194 190 188 181 174 173 173 178 178 175 181 188 190 188 176 175 180 178 280 286 232 272 250 280 292 334 318 320 324 323 321 315 316 325 327 322 324
Wind_Speed_850mb
28 46 49 43 39 37 35 32 32 30 27 26 25 25 28 32 34 34 31 29 29 31 31 28 23 19 19 19 14 10 10 13 15 15 17 18 18 19 17 17 12 16 11
36 52 50 42 40 38 35 33 32 31 28 25 24 23 28 32 34 32 29 28 28 27 25 22 19 16 14 12 10 10 13 17 20 22 23 21 18 14 11 9 13 11 7
39 54 51 44 41 40 36 34 34 31 29 26 23 22 25 30 32 29 28 27 24 22 20 17 13 8 9 9 9 11 15 20 27 28 21 18 25 9 8 7 6 5 4
37 54 52 48 43 41 38 35 35 31 28 26 22 19 23 28 30 30 28 23 20 20 19 16 12 7 5 6 8 12 17 25 29 28 23 9 12 16 11 7 7 6 7
35 54 50 50 46 42 38 37 34 31 29 25 21 20 23 27 29 30 27 22 20 20 17 13 9 5 5 6 7 11 17 24 25 26 22 10 14 16 21 15 12 12 14
34 54 50 50 48 43 39 37 34 32 29 26 21 22 24 27 30 30 26 20 18 16 13 11 8 6 5 5 7 11 17 24 24 21 14 11 16 18 24 19 17 19 19
38 47 54 50 50 46 40 37 34 31 29 25 23 24 26 29 31 28 24 20 16 15 13 9 6 5 5 5 6 9 17 21 13 12 2 13 11 21 25 24 22 22 23
41 48 54 54 50 47 43 37 33 31 29 26 25 25 26 30 31 28 24 19 16 15 11 7 5 5 4 3 3 5 11 15 15 11 3 21 21 24 30 29 28 28 29
41 50 48 59 54 48 45 39 34 30 30 28 26 26 28 31 32 29 23 19 16 12 9 7 6 4 3 2 1 2 4 9 10 4 7 19 18 23 33 37 31 30 32
44 44 44 64 61 55 51 44 37 31 30 30 30 30 31 33 33 29 23 20 15 11 9 6 5 4 3 3 4 5 3 2 9 2 15 26 28 30 38 29 28 30 29
50 50 38 63 64 59 55 51 43 39 36 35 33 34 34 36 34 28 24 19 15 13 9 6 5 4 4 12 18 15 10 8 6 18 17 22 28 36 35 32 33 35 34
58 55 42 52 61 58 50 55 51 45 43 40 39 39 39 36 33 27 25 21 18 13 11 8 6 8 13 5 10 16 13 12 10 16 24 31 32 39 39 36 35 34 33
61 59 52 58 51 53 47 55 55 50 47 44 42 42 40 28 28 28 23 24 20 15 11 6 8 10 10 13 7 12 14 15 15 11 19 29 36 42 44 41 35 32 29
64 65 59 62 54 56 59 46 51 50 48 47 44 44 42 36 31 28 13 22 17 12 7 8 7 6 7 7 5 4 6 9 13 21 27 32 39 42 48 42 31 25 21
65 69 68 67 61 64 61 46 44 39 44 42 43 46 45 35 33 36 24 8 7 8 6 6 16 14 6 6 8 14 14 13 15 21 24 30 38 43 44 32 23 20 23
56 71 71 71 65 68 56 49 47 41 35 40 34 44 43 36 43 34 30 21 14 22 17 12 19 8 12 13 14 17 14 18 23 31 32 31 32 39 37 30 27 23 25
45 78 79 70 68 76 49 47 53 49 43 46 38 30 46 42 39 33 30 32 22 22 28 16 22 16 4 10 14 14 14 22 16 22 34 15 24 34 31 36 27 29 33
33 77 87 81 75 83 62 50 57 51 47 45 47 40 43 42 37 39 33 33 27 31 23 21 13 12 11 7 12 15 17 13 15 29 16 15 18 21 25 30 37 39 36
51 61 82 89 85 80 77 54 59 49 51 44 48 46 41 49 38 47 32 33 29 20 17 17 9 9 7 10 11 16 19 21 19 10 24 24 17 13 21 28 38 43 35
73 61 75 87 88 83 83 65 64 44 56 48 49 49 36 54 43 49 32 35 32 32 24 21 16 12 10 16 18 13 23 20 19 14 18 14 16 27 27 28 39 25 30
67 87 78 86 83 89 89 82 76 56 62 49 51 50 42 54 45 51 36 38 32 34 20 11 8 3 3 16 8 16 28 24 20 14 24 13 15 26 31 31 25 28 49
84 84 92 91 99 90 93 91 80 61 64 51 55 53 45 47 48 51 40 36 32 27 22 18 13 8 11 18 22 11 12 14 14 32 20 16 23 31 35 19 37 44 42
83 86 100 94 94 82 89 96 74 60 61 55 58 55 49 51 46 48 42 34 37 33 26 17 19 14 8 15 17 16 14 11 37 14 19 23 21 34 32 30 29 39 48
97 75 93 97 96 81 95 97 87 80 79 66 65 61 52 50 57 47 41 41 45 35 28 25 14 10 7 5 9 18 20 28 26 20 23 26 20 29 32 29 37 45 36
90 81 95 102 95 87 104 95 88 81 77 69 68 54 55 47 63 53 47 46 46 40 32 24 11 14 9 22 11 12 13 13 15 21 28 36 37 35 38 44 42 31 43
68 86 100 102 96 89 109 91 87 84 81 76 70 70 63 61 61 56 57 52 44 37 25 12 9 38 4 17 14 9 11 15 21 23 31 36 39 43 42 38 53 55 49
Wind_Direction_850mb
168 162 158 154 150 151 155 158 163 161 153 142 132 128 129 130 132 132 135 134 134 133 132 128 120 106 106 121 122 112 108 113 115 113 102 93 94 100 107 103 89 86 76
149 162 160 157 154 154 157 158 164 164 157 147 138 135 133 132 133 133 134 134 132 133 134 130 121 105 99 103 104 102 102 105 101 91 87 82 71 91 103 85 86 105 91
159 162 162 161 157 157 159 160 165 167 160 154 146 138 135 136 136 135 133 130 131 136 138 139 139 125 99 85 91 97 102 103 97 90 77 71 12 33 55 59 72 80 60
161 162 166 162 161 163 162 160 167 167 163 160 152 143 140 142 140 138 135 131 133 142 145 146 148 140 110 92 98 106 111 114 107 90 73 103 336 334 353 353 346 341 330
170 168 170 165 165 166 165 163 164 167 167 164 159 153 149 149 146 145 144 141 140 146 150 150 152 155 126 113 110 115 120 122 108 98 84 161 278 304 324 327 330 320 314
174 175 171 171 169 168 168 168 169 170 169 167 164 164 158 157 155 153 155 155 153 159 162 158 151 143 127 121 127 126 130 129 126 105 81 276 279 292 319 317 317 315 315
167 180 175 177 172 171 171 172 173 171 171 169 172 171 164 164 162 162 165 166 163 164 164 163 155 148 144 145 147 150 153 148 130 80 344 267 277 290 312 317 319 310 304
169 191 182 179 177 176 173 176 174 173 173 173 178 176 170 169 169 171 172 171 169 169 171 173 169 173 167 149 142 159 173 176 156 98 227 261 281 280 299 309 307 304 300
172 196 190 181 180 180 179 179 177 174 174 176 182 181 177 174 176 178 176 173 172 174 180 178 176 178 154 131 134 202 186 190 214 118 319 267 271 286 302 302 300 303 301
178 193 195 186 181 182 183 183 180 176 179 179 185 184 181 179 182 184 182 183 186 189 192 192 173 166 149 95 40 13 342 139 91 335 287 269 277 295 303 304 310 310 309
182 193 195 187 184 185 187 183 184 182 181 184 187 186 182 185 186 187 192 192 197 200 197 179 171 147 120 87 52 32 45 93 350 300 255 290 296 302 305 306 308 308 306
183 190 190 191 187 183 190 188 186 186 184 187 188 185 182 189 191 190 201 195 199 201 195 176 164 114 76 127 47 34 35 15 9 273 289 290 303 309 309 308 308 307 306
189 187 186 195 189 174 187 188 188 189 188 188 191 187 180 189 182 198 204 207 200 202 194 156 114 116 87 7 280 9 9 345 309 292 299 305 305 311 315 312 313 316 314
192 188 189 195 189 176 199 196 190 190 190 191 193 185 171 191 187 194 222 210 204 190 183 43 59 102 67 217 149 206 229 249 354 296 304 305 309 319 320 317 316 321 328
195 185 187 194 190 175 203 198 189 193 194 193 197 186 174 191 199 174 215 186 133 113 167 250 228 237 198 206 239 250 248 272 299 304 299 313 313 320 325 324 325 326 332
202 184 183 193 188 177 205 193 181 188 195 184 205 190 173 183 208 183 201 196 205 208 208 190 218 223 204 257 274 281 290 281 284 283 297 297 314 318 324 334 325 321 321
214 186 187 190 190 178 192 189 179 185 191 186 203 199 174 190 209 183 194 181 189 194 188 194 172 206 224 255 285 296 301 299 319 291 298 310 312 308 321 331 331 324 319
230 186 191 190 191 182 183 189 180 187 193 184 196 204 187 188 202 185 196 176 179 205 205 202 235 212 247 301 297 297 292 292 289 297 338 283 311 307 316 320 317 314 322
237 202 188 190 196 187 189 191 185 191 188 187 194 206 204 191 202 184 193 174 188 186 194 206 203 256 266 287 288 307 285 293 284 271 269 284 273 264 290 303 302 318 330
219 215 207 201 196 197 193 196 189 193 188 190 192 206 208 191 203 174 181 197 197 196 185 196 178 214 249 260 269 257 270 298 284 273 300 312 290 316 326 291 316 333 316
234 212 204 201 199 198 194 190 192 195 191 188 192 204 204 191 197 166 182 195 200 207 186 191 153 4 115 322 329 332 260 292 284 276 277 301 261 284 327 307 317 294 310
233 212 202 205 204 203 200 195 191 191 191 185 189 200 208 201 190 166 191 194 188 181 167 164 152 124 57 354 338 358 355 278 325 311 279 285 296 294 325 295 286 300 303
223 205 198 205 207 205 202 191 187 189 184 183 191 197 199 197 177 174 184 185 179 172 171 134 103 88 55 354 357 37 335 320 333 7 298 315 305 300 318 335 316 313 316
215 208 205 206 203 207 194 187 186 185 181 181 185 188 187 194 171 186 181 181 178 174 151 149 132 89 119 50 0 19 335 340 314 327 327 329 331 326 343 343 325 331 331
205 205 206 202 201 203 191 189 188 182 178 176 180 181 183 180 175 186 183 185 177 168 162 168 58 30 348 323 307 307 293 292 350 327 334 319 307 315 320 328 318 314 320
211 193 200 201 199 201 194 190 188 181 174 173 173 178 178 175 181 188 190 188 176 175 180 178 280 286 232 272 250 280 292 334 318 320 324 323 321 315 316 325 327 322 324